Time,TemperatureF,DewpointF,PressureIn,WindDirection,WindDirectionDegrees,WindSpeedMPH,WindSpeedGustMPH,Humidity,HourlyPrecipIn,Conditions,Clouds,dailyrainin,SoftwareType,DateUTC
2013-02-18 00:02:00,60.0,50.0,29.91,SSW,199,9.0,24.0,70,0.00,,,0.00,,2013-02-18 06:02:00,
2013-02-18 00:11:00,60.0,50.0,29.91,SSW,199,9.0,24.0,70,0.00,,,0.00,,2013-02-18 06:11:00,
2013-02-18 00:21:00,60.0,51.0,29.91,SSW,209,11.0,25.0,71,0.00,,,0.00,,2013-02-18 06:21:00,
2013-02-18 00:32:00,60.0,51.0,29.90,SW,214,12.0,22.0,71,0.00,,,0.00,,2013-02-18 06:32:00,
2013-02-18 00:41:00,60.0,51.0,29.90,SSW,211,7.0,18.0,72,0.00,,,0.00,,2013-02-18 06:41:00,
2013-02-18 00:51:00,60.0,51.0,29.90,SSW,211,7.0,18.0,72,0.00,,,0.00,,2013-02-18 06:51:00,
2013-02-18 01:01:00,60.0,51.0,29.88,SSW,198,10.0,19.0,73,0.00,,,0.00,,2013-02-18 07:01:00,
2013-02-18 01:11:00,60.0,51.0,29.88,SSW,198,10.0,19.0,73,0.00,,,0.00,,2013-02-18 07:11:00,
2013-02-18 01:21:00,60.0,51.0,29.88,SSW,213,6.0,25.0,73,0.00,,,0.00,,2013-02-18 07:21:00,
2013-02-18 01:32:00,60.0,52.0,29.88,South,191,9.0,17.0,74,0.00,,,0.00,,2013-02-18 07:32:00,
2013-02-18 01:42:00,60.0,52.0,29.88,South,191,9.0,17.0,74,0.00,,,0.00,,2013-02-18 07:42:00,
2013-02-18 01:51:00,60.0,52.0,29.87,SW,222,7.0,23.0,74,0.00,,,0.00,,2013-02-18 07:51:00,
2013-02-18 02:01:00,61.0,53.0,29.86,South,188,9.0,23.0,75,0.00,,,0.00,,2013-02-18 08:01:00,
2013-02-18 02:11:00,61.0,53.0,29.86,South,188,9.0,23.0,75,0.00,,,0.00,,2013-02-18 08:11:00,
2013-02-18 02:21:00,61.0,53.0,29.87,SSW,203,9.0,16.0,75,0.00,,,0.00,,2013-02-18 08:21:00,
2013-02-18 02:32:00,61.0,53.0,29.86,SSW,213,8.0,22.0,75,0.00,,,0.00,,2013-02-18 08:32:00,
2013-02-18 02:42:00,61.0,53.0,29.86,SSW,213,8.0,22.0,75,0.00,,,0.00,,2013-02-18 08:42:00,
2013-02-18 02:52:00,61.0,53.0,29.85,SSW,211,10.0,22.0,75,0.00,,,0.00,,2013-02-18 08:52:00,
2013-02-18 03:02:00,61.0,53.0,29.85,SW,218,9.0,17.0,76,0.00,,,0.00,,2013-02-18 09:02:00,
2013-02-18 03:11:00,61.0,53.0,29.85,SW,218,9.0,17.0,76,0.00,,,0.00,,2013-02-18 09:11:00,
2013-02-18 03:22:00,61.0,53.0,29.84,SSW,211,10.0,22.0,75,0.00,,,0.00,,2013-02-18 09:22:00,
2013-02-18 03:32:00,61.0,53.0,29.84,SSW,194,6.0,17.0,76,0.00,,,0.00,,2013-02-18 09:32:00,
2013-02-18 03:42:00,61.0,53.0,29.84,SSW,194,6.0,17.0,76,0.00,,,0.00,,2013-02-18 09:42:00,
2013-02-18 03:51:00,61.0,53.0,29.84,SSW,204,6.0,16.0,76,0.00,,,0.00,,2013-02-18 09:51:00,
2013-02-18 04:01:00,61.0,53.0,29.84,South,186,8.0,15.0,76,0.00,,,0.00,,2013-02-18 10:01:00,
2013-02-18 04:11:00,61.0,53.0,29.84,South,186,8.0,15.0,76,0.00,,,0.00,,2013-02-18 10:11:00,
2013-02-18 04:21:00,61.0,53.0,29.83,SSW,204,10.0,20.0,76,0.00,,,0.00,,2013-02-18 10:21:00,
2013-02-18 04:31:00,61.0,53.0,29.83,SSW,197,9.0,18.0,76,0.00,,,0.00,,2013-02-18 10:31:00,
2013-02-18 04:42:00,61.0,53.0,29.83,SSW,197,9.0,18.0,76,0.00,,,0.00,,2013-02-18 10:42:00,
2013-02-18 04:52:00,61.0,54.0,29.83,SW,217,5.0,15.0,77,0.00,,,0.00,,2013-02-18 10:52:00,
2013-02-18 05:01:00,62.0,55.0,29.82,SW,229,11.0,20.0,77,0.00,,,0.00,,2013-02-18 11:01:00,
2013-02-18 05:11:00,62.0,55.0,29.82,SW,229,11.0,20.0,77,0.00,,,0.00,,2013-02-18 11:11:00,
2013-02-18 05:22:00,62.0,55.0,29.82,SSW,199,7.0,18.0,77,0.00,,,0.00,,2013-02-18 11:22:00,
2013-02-18 05:32:00,62.0,55.0,29.82,SSW,213,4.0,20.0,77,0.00,,,0.00,,2013-02-18 11:32:00,
2013-02-18 05:42:00,62.0,55.0,29.82,SSW,213,4.0,20.0,77,0.00,,,0.00,,2013-02-18 11:42:00,
2013-02-18 05:52:00,62.0,55.0,29.82,SSW,198,10.0,19.0,78,0.00,,,0.00,,2013-02-18 11:52:00,
2013-02-18 06:02:00,62.0,55.0,29.82,SSW,198,8.0,16.0,78,0.00,,,0.00,,2013-02-18 12:02:00,
2013-02-18 06:11:00,62.0,55.0,29.82,SSW,198,8.0,16.0,78,0.00,,,0.00,,2013-02-18 12:11:00,
2013-02-18 06:22:00,62.0,55.0,29.82,SSW,209,11.0,20.0,78,0.00,,,0.00,,2013-02-18 12:22:00,
2013-02-18 06:32:00,62.0,55.0,29.82,SSW,211,9.0,17.0,78,0.00,,,0.00,,2013-02-18 12:32:00,
2013-02-18 06:42:00,62.0,55.0,29.82,SSW,211,9.0,17.0,78,0.00,,,0.00,,2013-02-18 12:42:00,
2013-02-18 06:52:00,62.0,55.0,29.82,South,184,9.0,18.0,79,0.00,,,0.00,,2013-02-18 12:52:00,
2013-02-18 07:03:00,62.0,55.0,29.81,SW,228,8.0,17.0,79,0.00,,,0.00,,2013-02-18 13:03:00,
2013-02-18 07:12:00,62.0,55.0,29.81,SW,228,8.0,17.0,79,0.00,,,0.00,,2013-02-18 13:12:00,
2013-02-18 07:22:00,62.0,55.0,29.81,South,171,7.0,13.0,79,0.00,,,0.00,,2013-02-18 13:22:00,
2013-02-18 07:32:00,62.0,55.0,29.81,SSW,194,5.0,13.0,79,0.00,,,0.00,,2013-02-18 13:32:00,
2013-02-18 07:42:00,62.0,55.0,29.81,SSW,194,5.0,13.0,79,0.00,,,0.00,,2013-02-18 13:42:00,
2013-02-18 07:53:00,63.0,56.0,29.81,SSW,209,7.0,14.0,79,0.00,,,0.00,,2013-02-18 13:53:00,
2013-02-18 08:02:00,63.0,56.0,29.82,SSW,205,6.0,17.0,79,0.00,,,0.00,,2013-02-18 14:02:00,
2013-02-18 08:11:00,63.0,56.0,29.82,SSW,205,6.0,17.0,79,0.00,,,0.00,,2013-02-18 14:11:00,
2013-02-18 08:22:00,63.0,57.0,29.82,SSE,167,2.0,13.0,80,0.00,,,0.00,,2013-02-18 14:22:00,
2013-02-18 08:33:00,63.0,57.0,29.82,SSW,205,5.0,12.0,80,0.00,,,0.00,,2013-02-18 14:33:00,
2013-02-18 08:42:00,63.0,57.0,29.82,SSW,205,5.0,12.0,80,0.00,,,0.00,,2013-02-18 14:42:00,
2013-02-18 08:53:00,63.0,57.0,29.83,SSW,204,3.0,12.0,80,0.00,,,0.00,,2013-02-18 14:53:00,
2013-02-18 09:02:00,63.0,57.0,29.84,SW,236,5.0,10.0,80,0.00,,,0.00,,2013-02-18 15:02:00,
2013-02-18 09:11:00,63.0,57.0,29.84,SW,236,5.0,10.0,80,0.00,,,0.00,,2013-02-18 15:11:00,
2013-02-18 09:22:00,64.0,57.0,29.84,SW,223,8.0,15.0,79,0.00,,,0.00,,2013-02-18 15:22:00,
2013-02-18 09:32:00,64.0,57.0,29.85,SW,232,7.0,14.0,79,0.00,,,0.00,,2013-02-18 15:32:00,
2013-02-18 09:42:00,64.0,57.0,29.85,SW,232,7.0,14.0,79,0.00,,,0.00,,2013-02-18 15:42:00,
2013-02-18 09:52:00,65.0,58.0,29.85,WSW,245,10.0,18.0,77,0.00,,,0.00,,2013-02-18 15:52:00,
2013-02-18 10:02:00,65.0,58.0,29.88,WSW,242,9.0,19.0,77,0.00,,,0.00,,2013-02-18 16:02:00,
2013-02-18 10:12:00,65.0,58.0,29.88,WSW,242,9.0,19.0,77,0.00,,,0.00,,2013-02-18 16:12:00,
2013-02-18 10:22:00,66.0,58.0,29.88,WSW,238,6.0,16.0,76,0.00,,,0.00,,2013-02-18 16:22:00,
2013-02-18 10:32:00,67.0,58.0,29.87,SW,214,10.0,18.0,73,0.00,,,0.00,,2013-02-18 16:32:00,
2013-02-18 10:42:00,67.0,58.0,29.87,SW,214,10.0,18.0,73,0.00,,,0.00,,2013-02-18 16:42:00,
2013-02-18 10:52:00,67.0,58.0,29.87,SW,214,10.0,18.0,73,0.00,,,0.00,,2013-02-18 16:52:00,
2013-02-18 11:03:00,68.0,59.0,29.87,SW,216,7.0,17.0,73,0.00,,,0.00,,2013-02-18 17:03:00,
2013-02-18 11:12:00,68.0,59.0,29.87,SW,216,7.0,17.0,73,0.00,,,0.00,,2013-02-18 17:12:00,
2013-02-18 11:22:00,68.0,58.0,29.86,SW,221,8.0,16.0,71,0.00,,,0.00,,2013-02-18 17:22:00,
2013-02-18 11:32:00,68.0,58.0,29.86,SW,221,8.0,16.0,71,0.00,,,0.00,,2013-02-18 17:32:00,
2013-02-18 11:42:00,68.0,58.0,29.86,SW,221,8.0,16.0,71,0.00,,,0.00,,2013-02-18 17:42:00,
2013-02-18 11:52:00,70.0,58.0,29.86,SW,229,13.0,23.0,66,0.00,,,0.00,,2013-02-18 17:52:00,
2013-02-18 12:02:00,72.0,58.0,29.85,SW,221,10.0,21.0,62,0.00,,,0.00,,2013-02-18 18:02:00,
2013-02-18 12:12:00,72.0,58.0,29.85,SW,221,10.0,21.0,62,0.00,,,0.00,,2013-02-18 18:12:00,
2013-02-18 12:22:00,72.0,57.0,29.84,WSW,237,14.0,23.0,60,0.00,,,0.00,,2013-02-18 18:22:00,
2013-02-18 12:32:00,73.0,58.0,29.83,SW,214,10.0,23.0,59,0.00,,,0.00,,2013-02-18 18:32:00,
2013-02-18 12:42:00,73.0,58.0,29.83,SW,214,10.0,23.0,59,0.00,,,0.00,,2013-02-18 18:42:00,
2013-02-18 12:52:00,74.0,57.0,29.81,WSW,243,14.0,21.0,56,0.00,,,0.00,,2013-02-18 18:52:00,
2013-02-18 13:02:00,76.0,58.0,29.81,SW,217,7.0,24.0,53,0.00,,,0.00,,2013-02-18 19:02:00,
2013-02-18 13:12:00,76.0,58.0,29.81,SW,217,7.0,24.0,53,0.00,,,0.00,,2013-02-18 19:12:00,
2013-02-18 13:22:00,77.0,56.0,29.80,WSW,248,10.0,22.0,49,0.00,,,0.00,,2013-02-18 19:22:00,
2013-02-18 13:33:00,77.0,55.0,29.79,WSW,241,11.0,18.0,46,0.00,,,0.00,,2013-02-18 19:33:00,
2013-02-18 13:42:00,77.0,55.0,29.79,WSW,241,11.0,18.0,46,0.00,,,0.00,,2013-02-18 19:42:00,
2013-02-18 13:52:00,77.0,52.0,29.79,West,280,7.0,22.0,42,0.00,,,0.00,,2013-02-18 19:52:00,
2013-02-18 14:02:00,78.0,50.0,29.78,West,280,6.0,19.0,38,0.00,,,0.00,,2013-02-18 20:02:00,
2013-02-18 14:12:00,78.0,50.0,29.78,West,280,6.0,19.0,38,0.00,,,0.00,,2013-02-18 20:12:00,
2013-02-18 14:23:00,78.0,48.0,29.78,WSW,252,10.0,17.0,35,0.00,,,0.00,,2013-02-18 20:23:00,
2013-02-18 14:33:00,79.0,47.0,29.76,WSW,254,7.0,17.0,33,0.00,,,0.00,,2013-02-18 20:33:00,
2013-02-18 14:42:00,79.0,47.0,29.76,WSW,254,7.0,17.0,33,0.00,,,0.00,,2013-02-18 20:42:00,
2013-02-18 14:52:00,80.0,48.0,29.75,WNW,282,2.0,16.0,33,0.00,,,0.00,,2013-02-18 20:52:00,
2013-02-18 15:03:00,79.0,46.0,29.75,SW,236,12.0,18.0,31,0.00,,,0.00,,2013-02-18 21:03:00,
2013-02-18 15:12:00,79.0,46.0,29.75,SW,236,12.0,18.0,31,0.00,,,0.00,,2013-02-18 21:12:00,
2013-02-18 15:32:00,80.0,45.0,29.75,WNW,293,3.0,14.0,29,0.00,,,0.00,,2013-02-18 21:32:00,
2013-02-18 15:42:00,80.0,45.0,29.75,WNW,293,3.0,14.0,29,0.00,,,0.00,,2013-02-18 21:42:00,
2013-02-18 15:52:00,81.0,41.0,29.75,WSW,253,10.0,15.0,24,0.00,,,0.00,,2013-02-18 21:52:00,
2013-02-18 16:02:00,81.0,37.0,29.75,WSW,250,9.0,19.0,21,0.00,,,0.00,,2013-02-18 22:02:00,
2013-02-18 16:12:00,81.0,37.0,29.75,WNW,297,10.0,21.0,21,0.00,,,0.00,,2013-02-18 22:12:00,
2013-02-18 16:22:00,81.0,37.0,29.75,WNW,297,10.0,21.0,21,0.00,,,0.00,,2013-02-18 22:22:00,
2013-02-18 16:33:00,81.0,37.0,29.75,West,272,2.0,18.0,21,0.00,,,0.00,,2013-02-18 22:33:00,
2013-02-18 16:42:00,81.0,37.0,29.75,West,272,2.0,18.0,21,0.00,,,0.00,,2013-02-18 22:42:00,
2013-02-18 16:52:00,81.0,37.0,29.75,NW,317,6.0,20.0,21,0.00,,,0.00,,2013-02-18 22:52:00,
2013-02-18 17:02:00,81.0,35.0,29.75,NW,304,11.0,19.0,19,0.00,,,0.00,,2013-02-18 23:02:00,
2013-02-18 17:12:00,81.0,35.0,29.75,NW,304,11.0,19.0,19,0.00,,,0.00,,2013-02-18 23:12:00,
2013-02-18 17:22:00,80.0,34.0,29.76,NNW,329,5.0,16.0,19,0.00,,,0.00,,2013-02-18 23:22:00,
2013-02-18 17:33:00,80.0,33.0,29.76,West,265,9.0,18.0,18,0.00,,,0.00,,2013-02-18 23:33:00,
2013-02-18 17:42:00,80.0,33.0,29.76,West,265,9.0,18.0,18,0.00,,,0.00,,2013-02-18 23:42:00,
2013-02-18 17:52:00,79.0,33.0,29.76,NNW,329,9.0,18.0,19,0.00,,,0.00,,2013-02-18 23:52:00,
2013-02-18 18:03:00,78.0,32.0,29.77,NNW,346,6.0,17.0,19,0.00,,,0.00,,2013-02-19 00:03:00,
2013-02-18 18:12:00,78.0,32.0,29.77,NNW,346,6.0,17.0,19,0.00,,,0.00,,2013-02-19 00:12:00,
2013-02-18 18:22:00,77.0,32.0,29.79,NNW,342,3.0,13.0,19,0.00,,,0.00,,2013-02-19 00:22:00,
2013-02-18 18:34:00,75.0,30.0,29.79,NNW,338,1.0,5.0,19,0.00,,,0.00,,2013-02-19 00:34:00,
2013-02-18 18:43:00,75.0,30.0,29.79,NNW,338,1.0,5.0,19,0.00,,,0.00,,2013-02-19 00:43:00,
2013-02-18 18:53:00,74.0,30.0,29.81,NNW,340,2.0,12.0,20,0.00,,,0.00,,2013-02-19 00:53:00,
2013-02-18 19:03:00,73.0,30.0,29.82,NNW,345,3.0,7.0,20,0.00,,,0.00,,2013-02-19 01:03:00,
2013-02-18 19:13:00,73.0,30.0,29.82,NNW,345,3.0,7.0,20,0.00,,,0.00,,2013-02-19 01:13:00,
2013-02-18 19:23:00,72.0,30.0,29.83,NNW,331,5.0,11.0,21,0.00,,,0.00,,2013-02-19 01:23:00,
2013-02-18 19:34:00,71.0,28.0,29.84,NNW,343,3.0,11.0,20,0.00,,,0.00,,2013-02-19 01:34:00,
2013-02-18 19:43:00,71.0,28.0,29.84,NNW,343,3.0,11.0,20,0.00,,,0.00,,2013-02-19 01:43:00,
2013-02-18 19:53:00,71.0,28.0,29.84,NNW,343,3.0,11.0,20,0.00,,,0.00,,2013-02-19 01:53:00,
2013-02-18 20:03:00,68.0,31.0,29.87,NNE,15,4.0,14.0,25,0.00,,,0.00,,2013-02-19 02:03:00,
2013-02-18 20:13:00,68.0,31.0,29.87,NNE,15,4.0,14.0,25,0.00,,,0.00,,2013-02-19 02:13:00,
2013-02-18 20:23:00,67.0,32.0,29.89,North,5,5.0,18.0,27,0.00,,,0.00,,2013-02-19 02:23:00,
2013-02-18 20:34:00,66.0,33.0,29.90,NNE,19,4.0,15.0,29,0.00,,,0.00,,2013-02-19 02:34:00,
2013-02-18 20:42:00,66.0,33.0,29.90,NNE,19,4.0,15.0,29,0.00,,,0.00,,2013-02-19 02:42:00,
2013-02-18 20:53:00,65.0,33.0,29.91,NE,38,4.0,15.0,30,0.00,,,0.00,,2013-02-19 02:53:00,
2013-02-18 21:06:00,64.0,33.0,29.92,NNE,32,5.0,14.0,31,0.00,,,0.00,,2013-02-19 03:06:00,
2013-02-18 21:13:00,64.0,33.0,29.92,NNE,32,5.0,14.0,31,0.00,,,0.00,,2013-02-19 03:13:00,
2013-02-18 21:23:00,63.0,32.0,29.93,North,360,3.0,16.0,31,0.00,,,0.00,,2013-02-19 03:23:00,
2013-02-18 21:34:00,63.0,33.0,29.95,North,360,7.0,14.0,32,0.00,,,0.00,,2013-02-19 03:34:00,
2013-02-18 21:43:00,63.0,33.0,29.95,North,360,7.0,14.0,32,0.00,,,0.00,,2013-02-19 03:43:00,
2013-02-18 21:53:00,63.0,33.0,29.95,North,360,7.0,14.0,32,0.00,,,0.00,,2013-02-19 03:53:00,
2013-02-18 22:02:00,61.0,32.0,29.97,North,360,3.0,13.0,34,0.00,,,0.00,,2013-02-19 04:02:00,
2013-02-18 22:13:00,61.0,32.0,29.97,North,360,3.0,13.0,34,0.00,,,0.00,,2013-02-19 04:13:00,
2013-02-18 22:23:00,61.0,33.0,29.98,North,11,4.0,9.0,35,0.00,,,0.00,,2013-02-19 04:23:00,
2013-02-18 22:33:00,60.0,33.0,29.99,North,9,4.0,12.0,36,0.00,,,0.00,,2013-02-19 04:33:00,
2013-02-18 22:43:00,60.0,33.0,29.99,North,9,4.0,12.0,36,0.00,,,0.00,,2013-02-19 04:43:00,
2013-02-18 22:52:00,59.0,33.0,30.00,NNW,342,8.0,15.0,37,0.00,,,0.00,,2013-02-19 04:52:00,
2013-02-18 23:02:00,59.0,33.0,30.00,NNW,346,3.0,10.0,38,0.00,,,0.00,,2013-02-19 05:02:00,
2013-02-18 23:12:00,59.0,33.0,30.00,NNW,346,3.0,10.0,38,0.00,,,0.00,,2013-02-19 05:12:00,
2013-02-18 23:22:00,58.0,33.0,30.01,NNW,339,4.0,15.0,39,0.00,,,0.00,,2013-02-19 05:22:00,
2013-02-18 23:32:00,58.0,33.0,30.01,North,360,2.0,10.0,39,0.00,,,0.00,,2013-02-19 05:32:00,
2013-02-18 23:43:00,58.0,33.0,30.01,North,360,2.0,10.0,39,0.00,,,0.00,,2013-02-19 05:43:00,
2013-02-18 23:52:00,57.0,34.0,30.02,NNE,15,4.0,9.0,41,0.00,,,0.00,,2013-02-19 05:52:00,